Timeline UpdatesTrip UpdatesNews PostsPvt Posts♥♥Travel TipsAdmin PostsConv PostsFollowed PostsChat RequestsBlog PostsPNR Posts

Disclaimer
Search
 
 
Sat Nov 1, 2014 06:07:18 ISTHomeTrainsΣChainsAtlasPNRForumGalleryNewsFAQTripsMembersLoginFeedback
No Recent News for this Train
Other Trains in the News **new
Latest...
..
Tue Sep 03, 2013 (03:50PM)
⇐ Return Journey: Train# 11040

11039/Maharashtra Express

Time-Table HAS CHANGED.
Sep 04 2014 (10:14PM)
Change Departure Station:
Change Arrival Station:
Post a Train Travel TipPost a Train Travel Tip **new
Post a Comment/Question/Picture/VideoPost a Comment/Question/Picture/Video
Pantry/Catering
✕ NO Pantry Car
✓ Catering Avbl
RSA - Rake Sharing
11023/11024 Sahyadri Express
Rake/Coach Composition
[LOCO] [S10 (From Daund Jn To Gondia)] [SLR] [UR] [A1] [B1] [S1] [S2] [S3] [S4] [S5] [S6] [S7] [S8] [UR] [SLR] [S9 (Kolhapur To Bhusaval)]
Loco
KOP-BSL: PUNE/GY/GTL WDM-3D BSL-G: BSL WAP-4
News    PNR    Forum    Time-Table    Availability    Fare Chart    Map    Arr/Dep History    Trips    Gallery    ΣChains    X/O    Timeline    
Travel Time: 7h 35m    23 halts    Distance: 327 km    Avg Speed: 43 km/hr
Type: Mail/Express
Zone: CR/Central
Departs @ 15:30 (Avg on time)
Platform# 2
SMTWTFS
Kolhapur CSMT/KOP 
Arrives @ 23:05 (Avg 2m early)
Platform# 2
SMTWTFS
Pune Junction/PUNE 

23 halts. 42 intermediate Stations between Kolhapur CSMT and Pune Junction

Show ALL intermediate Stations  Show Old Time-Table

#TrkCodeStation NameX/OArrivesAvgDepartsAvgHaltPFDay#KmSpeedElevZoneAddress
1|--|KOPKolhapur CSMT (3)»  -15:30+0210.056563mCRKolhapur 416001, Maharashtra
2|--|VVValivade  15:38 15:37-15:39-1 2m116.650554mCRValivade, Maharashtra
3|--|RKDRukadi (1)X  15:48 15:47+415:49+31 2m2113.250544mCRKolhapur, Maharashtra
4|--|HTKHatkanagale (2)  15:59 15:58+416:00+61 2m1120.767591mCRDist. Kolhapur 416115, Maharashtra
5|--|JSPJayasingpur  16:14 16:13+816:15+71 2m1135.236550mCRJaysingpur, Maharashtra
6|--|MRJMiraj Junction (6)X  16:35+216:40+65m1147.137554mCRMiraj 416410, Maharashtra
7|--|SLISangli (3)  16:52+816:55+93m1154.457559mCRSangli, Maharashtra
8|--|BVQBhilavdi  17:16 17:15+817:17+81 2m1173.555570mCRSangli, Maharashtra
9|--|KOVKirloskarvadi  17:33 17:32+617:34+71 2m1187.351570mCRSangli, Maharashtra
10|--|TKRTakariX  17:44 17:43+817:45+81 2m1194.992558mCRSangli, Maharashtra
11|--|BVNRBhavani Nagar  17:50 17:49+1217:51+131 2m11101.175578mCRTasgaon Rd, Maharashtra
12|--|KRDKarad (3)  18:07 18:08+1718:10+183 2m11122.355597mCRDist- Satara., Maharashtra
13|--|MSRMasur  18:26 18:25+1818:27+181 2m11136.170610mCRSatara, Maharashtra
14|--|TAZTargaonX  18:39 18:38+2018:40+191 2m11148.966617mCRSatara, Maharashtra
15|--|RMPRahimatpur  18:51 18:50+2118:52+211 2m11160.056626mCRSatara, Maharashtra
16|--|KRGKoregaonX  19:04 19:03+2319:05+231 2m11170.332658mCRKoregaon, Maharashtra
17|--|STRSatara (3)  19:25+1619:28+183m21181.046637mCRSatara, Maharashtra
18|--|JSVJarandeshwar  19:39 19:38+1819:40+181 2m11188.661678mCRSH 61, Maharashtra
19|--|WTRWatharX  19:59 19:58+2020:00+211 2m11207.051799mCRSatara, Maharashtra
20|--|LNNLonand  20:33 20:32+2220:34+221 2m11234.351594mCRJn Point Daund /Miraj /Pune, Maharashtra
21|--|NIRANira (1)  20:43+2220:45+232m11242.057553mCRDist. Pune 412102, Maharashtra
22|--|JJRJejuri (1)  21:14 21:13+2721:15+271 2m11268.578697mCRDist. Pune 412303, Maharashtra
23|--|ABLEAmbale  21:29 21:28+3121:30+321 2m11285.444729mCRMalshiras Rd, Maharashtra
24|-=/GPRGhorpuri (2)  22:24 22:23+1822:25+181 2m11324.43558mCRPune, Maharashtra
25/==/PUNEPune Junction (6)•X  23:05-223:20+415m21326.762556mCRPune 411001, Maharashtra
26%==%URIUruli (2)  23:49 23:48+1223:50+121 2m21355.566553mCRDist. Pune 412202, Maharashtra
27%==%KDGKedgaon (2)X  00:14 00:13+1100:15+111 2m22380.732544mCRDist. Pune 412203, Maharashtra
28%==%DDDaund Junction (7)XO  00:55+101:10+1215m32402.358521mCRNew Daund Dist. Pune 413801, Maharashtra
29/--/ANGAhmadnagar (2)  02:37+802:40+93m12486.559650mCRAhmednagar 414001, Maharashtra
30/--/BAPBelapur (2)  03:48+1103:50+122m12553.568541mCRShrirampur, Maharashtra
31/--/PBPuntamba Junction (2)X  04:08+1704:10+222m12573.869501mCRPuntamba, Maharashtra
32/--/KPGKopargaon (2)X  04:31+3104:33+332m12598.127508mCRKopargaon 423601, Maharashtra
33/--/YLYeola (2)X  05:03+1905:05+212m12611.826553mCRYeola, Maharashtra
34/--/MMRManmad Junction (6)X  06:10+706:15+105m52640.485580mCRManmad 423104, Maharashtra
35/==/NGNNandgaon (3)X  06:33+1706:35+172m22665.790476mCRNandgaon, Maharashtra
36/==/CSNChalisgaon Junction (3)X  07:03+2107:05+212m22707.996352mCRChalisgaon 424101, Maharashtra
37/==/PCPachora Junction (4)  07:33+2307:35+242m22752.775264mCRPachora 424201, Maharashtra
38/==/JLJalgaon Junction (4)  08:13+2308:15+242m12800.458213mCRJalgaon 425001, Maharashtra
39/==/BSLBhusaval Junction (8)O08:40+2609:00+2420m42824.657208mCRBhusaval 425201, Maharashtra
40/==/BDWDBodwad (2)  09:32+3309:34+332m22854.884294mCRBodwad, Maharashtra
41/==/MKUMalkapur (2)  09:48+3509:50+352m12874.584252mCRMalkapur, Maharashtra
42/==/NNNandura (2)  10:10+3610:12+362m12902.467267mCRNandura, Maharashtra
43/==/JMJalamb Junction (3)  10:23+3610:25+372m--2914.657259mCRJalamb, Maharashtra
44/==/SEGShegaon (2)  10:38+3410:40+352m22927.064281mCRShegaon 444203, Maharashtra
45/==/AKAkola Junction (7)X  11:15+2611:20+265m22964.180284mCRAkola-444001, Maharashtra
46/==/MZRMurtizapur (3)X  11:48+3711:50+372m221001.336303mCRMurtajapur, Maharashtra
47/==/BDBadnera Junction (4)X  13:00+313:05+55m121043.149335mCRBadnera (Amravati) 444701, Maharashtra
48/==/CNDChandur (2)  13:40+413:42+82m--21071.977331mCRAmravati Distt, Maharashtra
49/==/DMNDhamangaon (2)  13:55+1013:57+102m--21088.680300mCRDhamangaon, Maharashtra
50/==/PLOPulgaon Junction (3)  14:12+1214:14+132m121108.547273mCRPulgaon, Maharashtra
51/==/WRWardha Junction (4)X  14:52+214:55+53m--21138.132289mCRWardha 442001, Maharashtra
52/==/SEGMSewagram Junction (5)  15:00+815:02+92m--21140.871279mCRWardha, Maharashtra
53/==/TGPTuljapur (2)XO  15:21 15:20+1615:22+211 2m--21162.195259mCRTuljapur, Maharashtra
54/==/SNISindi (2)XO  15:27+2415:29+272m--21170.177258mCRWardha, Maharashtra
55/==/AJNIAjni (3)XO  16:03+3016:05+302m121213.92310mCRNagpur 440003, Maharashtra
56/==/NGPNagpur Junction (8)X  17:20+017:40+020m421217.025314mCRNagpur 440001, Maharashtra
57|--|ITRItwari (3)  17:49+1117:51+122m--21220.730306mSECRNagpur, Maharashtra
58/==/KPKamptee (3)X  18:12+1318:14+132m--21231.296290mSECRKamptee, Maharashtra
59/==/BRDBhandara Road (3)X  18:44+618:46+62m121279.277266mSECRState Highway 252 Bhandara District, Maharashtra
60/==/TMRTumsar Road (5)X  19:00+1719:02+182m121297.181267mSECRDistt. Bhandara, Maharashtra
61/==/TROTirora (3)  19:17+1619:19+162m121317.531282mSECRDist Gondia, Maharashtra
62/==/GGondia Junction (7)  20:15+1-521346.8-316mSECRGondia 441601, Maharashtra
Scroll to Top
Scroll to Bottom